Location: Unspecified
(0.0000°N, 0.0000°E)
Time: 19:19:45
(UTC+00:00)

COSMOS 2401 - Pass Details

Date: 08 March 2021
Orbit: 1467 x 1500 km, 82.5° (Epoch: 12 April)

Event Time Altitude Azimuth Distance (km) Brightness Sun altitude
Rises 19:00:29 0° 183° (S) 4,579 10.1 -12.4°
Reaches altitude 10° 19:03:20 10° 183° (S) 3,600 9.5 -13.1°
Maximum altitude 19:12:00 89° 92° (E) 1,476 7.4 -15.3°
Drops below altitude 10° 19:20:41 10° 4° (N) 3,609 9.4 -17.4°
Sets 19:23:33 0° 4° (N) 4,591 9.9 -18.2°
